Regional Weather Roundup
Issued by NWS

Home | Current Version | Previous Version | Text Only | Print | Product List | Glossary On
Versions: 1 2 3 4 5 6 7 8 9 10 11 12 13 14 15 16 17 18 19 20 21 22 23 24 25 26 27 28 29 30 31 32 33 34 35 36 37 38 39 40 41 42 43 44 45 46 47 48 49 50
000
ASUS45 KTFX 021910
RWRMT
MONTANA REGIONAL WEATHER ROUNDUP
NATIONAL WEATHER SERVICE GREAT FALLS MT
100 PM MDT TUE JUN 02 2015

NOTE: "FAIR" INDICATES FEW OR NO CLOUDS BELOW 12000 FEET WITH NO
SIGNIFICANT WEATHER AND/OR OBSTRUCTIONS TO VISIBILITY.

MTZ001>007-043-022000-
WEST OF THE DIVIDE

CITY           SKY/WX    TMP DP  RH WIND       PRES   REMARKS
KALISPELL      LGT RAIN  57  53  86 S12       29.93R
MISSOULA       LGT RAIN  57  51  80 CALM      29.96S
BUTTE          MOSUNNY   64  36  35 W10G17    29.95F
MULLAN PASS    LGT RAIN  40  40 100 VRB3      30.02R FOG
DEER LODGE       N/A     64  45  48 S5        29.96S
HAMILTON         N/A     61  45  55 E6        29.96S
LIBBY            N/A     61  46  59 N3        29.94R
PLAINS           N/A     61  47  59 NW1       29.96S
RONAN            N/A     55  49  80 CALM      30.02R
THOMPSON FALLS   N/A     57  50  78 W3        30.01R
$$

MTZ008-052>055-022000-
SOUTHWEST MONTANA

CITY           SKY/WX    TMP DP  RH WIND       PRES   REMARKS
BOZEMAN        MOSUNNY   68  42  38 SW9       29.94F
DILLON         MOSUNNY   64  43  46 SW13      29.95F
W YELLOWSTONE  CLOUDY    50  39  66 S3        30.11F
$$

MTZ009-010-012-014-046-048-049-054-022000-
EAST SLOPES AND CENTRAL MONTANA

CITY           SKY/WX    TMP DP  RH WIND       PRES   REMARKS
CUT BANK       CLOUDY    50  46  86 E22G31    29.92R
GREAT FALLS    MOSUNNY   66  46  48 SW15      29.87S
MALMSTROM AFB  MOSUNNY   67  48  49 SW12G23   29.87F
HELENA         MOSUNNY   65  49  56 NE7       29.90S
CONRAD           N/A     54  54 100 NE13      29.94R
$$

MTZ011-013-016-021-045-047-050-051-022000-
NORTH CENTRAL MONTANA

CITY           SKY/WX    TMP DP  RH WIND       PRES   REMARKS
HAVRE          LGT RAIN  55  51  86 E13       29.94R
LEWISTOWN      MOSUNNY   61  52  72 E15       29.90F
N BAR RANCH    CLOUDY    54  50  87 NE8       29.96S
CHINOOK          N/A     57  50  77 E7        29.95R
FORT BENTON      N/A     61  52  72 E10G16    29.90S
$$

MTZ017>020-022>027-061-062-022000-
NORTHEAST MONTANA

CITY           SKY/WX    TMP DP  RH WIND       PRES   REMARKS
GLASGOW        LGT RAIN  55  51  86 N10       29.89R FOG
JORDAN           N/A     57  52  83 N12       29.89S
SIDNEY         CLOUDY    63  55  77 SW13      29.77S
WOLF POINT     LGT RAIN  58  53  84 N16       29.85R
MALTA            N/A     57  49  75 N7        29.90S
PLENTYWOOD       N/A     55  54  94 NE20G25   29.84F
POPLAR           N/A     55  55 100 N16G25    29.82R
SCOBEY           N/A     61  45  55 N16       29.87S
$$

MTZ028>42-056>058-022000-
SOUTHCENTRAL AND SOUTHEAST MONTANA

CITY           SKY/WX    TMP DP  RH WIND       PRES   REMARKS
BAKER          CLOUDY    69  56  62 W17       29.84S
BILLINGS       MOSUNNY   72  51  47 N10       29.88F
LIVINGSTON     MOSUNNY   67  44  43 SW24G32   29.93F
MILES CITY     CLOUDY    64  55  72 NW15      29.86S
BIG TIMBER       N/A     63  43  48 S6        29.93F
EKALAKA          N/A     70  55  58 W16       29.86F
FORSYTH          N/A     64  55  72 W10       29.87F
LAUREL           N/A     70  52  52 NE1       29.90R
ROUNDUP          N/A     59  51  74 N3        29.84F
$$

REGIONAL REPORTS...DAKOTAS

CITY           SKY/WX    TMP DP  RH WIND       PRES   REMARKS
WILLISTON      RAIN      59  56  89 NE16G24   29.77F FOG
MINOT          CLOUDY    63  60  90 NE14      29.80S
DICKINSON      PTSUNNY   75  58  55 W5        29.75F
BEACH          MOCLDY    66  63  88 W22G28    29.82R
CROSBY         RAIN      54  54 100 NE14G22   29.87F
WATFORD CITY   LGT RAIN  63  61  94 E13       29.73F
BISMARCK       CLOUDY    74  64  71 N7        29.74F
GRAND FORKS    CLOUDY    66  58  75 S9        29.81S
FARGO          CLOUDY    71  58  63 S23G31    29.80R
BUFFALO SD       N/A     75  57  53 W16G24    29.77S
RAPID CITY     SUNNY     79  61  53 N8G16     29.83S
$$

REGIONAL REPORTS...WYOMING/IDAHO/WASHINGTON

CITY           SKY/WX    TMP DP  RH WIND       PRES   REMARKS
GILLETTE       SUNNY     74  51  44 N8        29.89F
SHERIDAN       SUNNY     72  54  53 NE8       29.90S
BUFFALO WY     SUNNY     71  50  47 N5        29.93F
CODY           MOSUNNY   73  34  23 SW5       29.90F
YELLOWSTONE LA   N/A     45  38  76 W12G29    30.16R
IDAHO FALLS    PTSUNNY   64  45  49 CALM      30.03F
SALMON           N/A     68  43  40 S21G28    29.90F
BOISE          SUNNY     71  43  36 NW10      29.99F
SPOKANE        CLOUDY    62  44  51 S18G28    29.93R
$$

REGIONAL REPORTS...ALBERTA

CITY           SKY/WX    TMP DP  RH WIND       PRES   REMARKS
EDMONTON       CLOUDY    52  45  76 NE10      29.98F
CALGARY        CLOUDY    55  46  71 CALM      29.96F
LETHBRIDGE     LGT RAIN  57  50  77 E10       29.95S
MEDICINE HAT   CLOUDY    64  46  52 NE5       29.93S
$$

REGIONAL REPORTS...SASKATCHEWAN

CITY           SKY/WX    TMP DP  RH WIND       PRES   REMARKS
SWIFT CURRENT  MOSUNNY   57  45  62 E13G18    29.97R
REGINA         CLOUDY    63  43  48 NE12G17   29.94S
SASKATOON      PTSUNNY   61  34  36 N12G18    30.02F
$$



USA.gov is the U.S. government's official web portal to all federal, state and local government web resources and services.